User: anonymous   Login
Location: Vancouver
(49.2500°N, 123.1330°W)
Time: 17:38:42
(UTC-07:00)
Language:

Cosmos 1340 Rocket - Orbit

View from above orbital plane
View from above orbital plane
View from above satellite
View from above satellite

Ground track
Ground track

The orbit data is extracted from the following two-line orbital elements,

1 13068U 82013B   16146.54276091  .00000160  00000-0  91384-5 0  9991
2 13068  81.2028 304.8824 0022848 154.4405 205.7954 15.06590395865124
Epoch (UTC): 25 May 2016 13:01:34
Eccentricity: 0.0022848
inclination: 81.2028°
perigee height: 531 km
apogee height: 562 km
right ascension of ascending node: 304.8824°
argument of perigee: 154.4405°
revolutions per day: 15.06590395
mean anomaly at epoch: 205.7954°
orbit number at epoch: 86512

The dashed part of the orbit path shows where the satellite is in the earth's shadow,  

DLR